Weather History for KGDB - May, 2013

Change the Weather History Date:

Wednesday, May 8, 2013

  Actual Average (KMVE) Record (KMVE)
Temperature  
Mean Temperature 60 °F -  
Max Temperature 61 °F 69 °F 89 °F (1985)
Min Temperature 54 °F 42 °F 28 °F (1980)
Degree Days  
Heating Degree Days 6    
Growing Degree Days 10 (Base 50)    
Moisture  
Dew Point 53 °F    
Average Humidity 85    
Maximum Humidity 94    
Minimum Humidity 41    
Precipitation  
Precipitation 0.61 in - - ()
Sea Level Pressure  
Sea Level Pressure 30.00 in    
Wind  
Wind Speed 5 mph (NNE)    
Max Wind Speed 14 mph    
Max Gust Speed 10 mph    
Visibility 8 miles    
Events Rain    
Averages and records for this station are not official NWS values.
T = Trace of Precipitation, MM = Missing Value Source: NWS Daily Summary

Daily Weather History Graph

Daily Weather History Graph

Search for Another Location

Airport or City:

Trip Planner

Search our weather history database for the weather conditions in past years. The results will help you decide how hot, cold, wet, or windy it might be!

Date:

Astronomy

May. 08, 2013 Rise Set
Actual Time 6:02 AM CDT 8:36 PM CDT
Civil Twilight 5:28 AM CDT 9:09 PM CDT
Nautical Twilight 4:47 AM CDT 9:51 PM CDT
Astronomical Twilight 4:00 AM CDT 10:38 PM CDT
Moon 5:14 AM CDT (5/8) 7:33 PM CDT (5/8)
Length of Visible Light 15h 40m
Length of Day
14h 34m
Waning Crescent, 2% of the Moon is Illuminated
May 8
Waning Crescent
May 9
New
May 17
First Quarter
May 24
Full
May 31
Last Quarter

Hourly Weather History & Observations

Time (CDT) Temp. Dew Point Humidity Pressure Visibility Wind Dir Wind Speed Gust Speed Precip Events Conditions
12:12 AM 65.8 °F 42.8 °F 43% 29.98 in 10.0 mi South 5.8 mph 10.4 mph N/A   Light Drizzle
12:33 AM 65.7 °F 41.4 °F 41% 29.98 in 10.0 mi Calm Calm - N/A   Overcast
12:52 AM 61.3 °F 43.9 °F 53% 29.98 in 10.0 mi WSW 9.2 mph - N/A   Overcast
1:13 AM 60.8 °F 47.7 °F 62% 29.98 in 10.0 mi WSW 6.9 mph - N/A Rain Light Rain
1:32 AM 59.7 °F 48.9 °F 67% 29.98 in 10.0 mi WSW 5.8 mph - N/A   Light Drizzle
1:53 AM 58.5 °F 49.8 °F 73% 29.98 in 10.0 mi WSW 4.6 mph - N/A   Overcast
2:13 AM 57.6 °F 50.9 °F 78% 29.98 in 10.0 mi WSW 4.6 mph - N/A   Overcast
2:33 AM 59.4 °F 49.5 °F 70% 29.98 in 10.0 mi SSW 3.5 mph - N/A Rain Light Rain
2:53 AM 57.9 °F 50.5 °F 76% 29.98 in 10.0 mi Calm Calm - N/A   Light Drizzle
3:12 AM 57.2 °F 51.1 °F 80% 29.98 in 10.0 mi SSW 5.8 mph - N/A   Overcast
3:33 AM 56.8 °F 51.8 °F 83% 29.97 in 10.0 mi WSW 4.6 mph - N/A   Overcast
3:53 AM 56.8 °F 51.1 °F 81% 29.97 in 10.0 mi WSW 5.8 mph - N/A   Overcast
4:13 AM 56.3 °F 50.7 °F 82% 29.97 in 10.0 mi WSW 6.9 mph - N/A   Overcast
4:33 AM 56.7 °F 49.8 °F 78% 29.97 in 10.0 mi WSW 8.1 mph - N/A   Overcast
4:53 AM 56.3 °F 50.0 °F 79% 29.98 in 10.0 mi WSW 5.8 mph - N/A   Overcast
5:13 AM 55.9 °F 50.2 °F 81% 29.97 in 10.0 mi West 4.6 mph - N/A   Overcast
5:53 AM 56.8 °F 50.5 °F 79% 29.98 in 10.0 mi Calm Calm - N/A   Overcast
6:13 AM 56.1 °F 50.4 °F 81% 29.98 in 10.0 mi Calm Calm - N/A   Overcast
6:32 AM 55.8 °F 50.9 °F 84% 29.98 in 10.0 mi Calm Calm - N/A   Overcast
6:53 AM 54.9 °F 50.9 °F 86% 29.99 in 10.0 mi Calm Calm - N/A   Overcast
7:13 AM 55.8 °F 51.6 °F 86% 30.00 in 10.0 mi South 3.5 mph - N/A   Overcast
7:33 AM 56.3 °F 52.0 °F 85% 30.00 in 10.0 mi Calm Calm - N/A Rain Light Rain
7:52 AM 56.7 °F 52.2 °F 85% 30.00 in 10.0 mi Calm Calm - 0.01 in   Light Drizzle
8:13 AM 57.2 °F 52.2 °F 83% 30.01 in 10.0 mi Calm Calm - N/A   Overcast
8:33 AM 58.1 °F 53.2 °F 84% 30.02 in 10.0 mi SSE 9.2 mph - N/A   Mostly Cloudy
8:52 AM 58.1 °F 52.7 °F 82% 30.02 in 10.0 mi SSE 8.1 mph - N/A   Mostly Cloudy
9:13 AM 58.1 °F 52.9 °F 83% 30.02 in 10.0 mi South 4.6 mph - N/A   Overcast
9:33 AM 58.1 °F 53.2 °F 84% 30.03 in 7.0 mi SSE 5.8 mph - N/A   Light Drizzle
9:53 AM 58.1 °F 53.6 °F 85% 30.02 in 7.0 mi SE 3.5 mph - N/A Rain Light Rain
10:12 AM 57.6 °F 53.2 °F 85% 30.02 in 4.0 mi ESE 3.5 mph - 0.03 in Rain Rain
10:33 AM 56.8 °F 53.8 °F 89% 30.03 in 4.0 mi East 3.5 mph - 0.08 in Rain Rain
10:53 AM 56.7 °F 54.5 °F 92% 30.01 in 4.0 mi NNE 6.9 mph - 0.10 in Rain Light Rain
11:12 AM 56.7 °F 54.5 °F 92% 30.01 in 5.0 mi NNE 9.2 mph - N/A Rain Light Rain
11:33 AM 56.8 °F 54.5 °F 92% 30.01 in 5.0 mi NNE 6.9 mph - N/A Rain Rain
11:53 AM 57.6 °F 54.5 °F 90% 30.02 in 7.0 mi NE 4.6 mph - 0.01 in Rain Light Rain
12:13 PM 57.4 °F 54.3 °F 90% 30.02 in 4.0 mi NE 4.6 mph - 0.04 in Rain Rain
12:32 PM 57.2 °F 54.5 °F 91% 30.02 in 4.0 mi NNE 4.6 mph - 0.08 in Rain Rain
12:53 PM 57.6 °F 54.9 °F 91% 30.02 in 5.0 mi NE 4.6 mph - 0.11 in Rain Light Rain
1:13 PM 57.9 °F 54.5 °F 88% 30.02 in 7.0 mi NE 3.5 mph - N/A   Drizzle
1:32 PM 58.1 °F 54.3 °F 87% 30.02 in 7.0 mi Calm Calm - N/A   Drizzle
1:53 PM 57.4 °F 54.1 °F 89% 30.02 in 5.0 mi ENE 3.5 mph - 0.01 in   Drizzle
2:13 PM 57.4 °F 54.5 °F 90% 30.02 in 7.0 mi ENE 4.6 mph - 0.01 in   Drizzle
2:33 PM 57.6 °F 55.0 °F 91% 30.02 in 5.0 mi ENE 6.9 mph - 0.02 in Rain Light Rain
2:52 PM 57.2 °F 54.7 °F 91% 30.03 in 7.0 mi ENE 4.6 mph - 0.02 in Rain Rain
3:13 PM 57.6 °F 55.0 °F 91% 30.02 in 7.0 mi NE 4.6 mph - 0.01 in Rain Light Rain
3:33 PM 57.7 °F 55.2 °F 91% 30.02 in 7.0 mi NNE 5.8 mph - 0.02 in Rain Light Rain
3:52 PM 57.9 °F 55.6 °F 92% 30.01 in 7.0 mi NNE 6.9 mph - 0.04 in Rain Light Rain
4:13 PM 57.7 °F 55.4 °F 92% 30.01 in 7.0 mi NNE 6.9 mph - 0.01 in Rain Light Rain
4:33 PM 58.1 °F 55.6 °F 91% 30.01 in 7.0 mi NNE 8.1 mph - 0.02 in Rain Rain
4:53 PM 58.3 °F 55.9 °F 92% 30.01 in 7.0 mi North 9.2 mph - 0.02 in   Light Drizzle
5:12 PM 58.3 °F 56.1 °F 93% 30.00 in 7.0 mi NNE 8.1 mph - 0.01 in Rain Light Rain
5:33 PM 58.3 °F 55.9 °F 92% 30.00 in 10.0 mi North 9.2 mph - 0.01 in Rain Rain
5:53 PM 59.4 °F 56.8 °F 91% 29.99 in 7.0 mi NNE 9.2 mph - 0.01 in   Light Drizzle
6:12 PM 59.2 °F 56.5 °F 91% 29.99 in 10.0 mi NNE 10.4 mph - 0.01 in Rain Light Rain
6:33 PM 59.0 °F 56.3 °F 91% 29.99 in 7.0 mi NNE 9.2 mph - 0.01 in Rain Light Rain
6:53 PM 58.8 °F 56.3 °F 91% 29.99 in 7.0 mi NNE 6.9 mph - 0.01 in   Drizzle
7:13 PM 58.3 °F 55.9 °F 92% 29.99 in 7.0 mi NNE 5.8 mph - N/A   Light Drizzle
7:33 PM 58.3 °F 55.6 °F 91% 30.00 in 7.0 mi NNE 3.5 mph - N/A   Drizzle
7:53 PM 58.1 °F 55.6 °F 91% 30.00 in 10.0 mi North 5.8 mph - 0.01 in Rain Light Rain
8:12 PM 58.1 °F 55.8 °F 92% 30.01 in 7.0 mi NNE 4.6 mph - N/A   Light Drizzle
8:33 PM 58.1 °F 55.4 °F 91% 30.01 in 4.0 mi NE 6.9 mph - 0.05 in Rain Light Rain
8:53 PM 57.7 °F 54.7 °F 90% 30.02 in 5.0 mi NE 4.6 mph - 0.08 in Rain Rain
9:13 PM 57.2 °F 54.5 °F 91% 30.02 in 4.0 mi Calm Calm - 0.04 in Rain Rain
9:32 PM 56.8 °F 54.5 °F 92% 30.03 in 4.0 mi Calm Calm - 0.08 in Rain Rain
9:53 PM 56.3 °F 54.5 °F 94% 30.03 in 5.0 mi North 5.8 mph - 0.13 in Rain Rain
10:13 PM 56.3 °F 54.1 °F 92% 30.03 in 7.0 mi North 6.9 mph - 0.02 in Rain Rain
10:32 PM 56.3 °F 54.0 °F 92% 30.02 in 7.0 mi North 6.9 mph - 0.03 in Rain Light Rain
10:53 PM 55.8 °F 54.0 °F 94% 30.02 in 7.0 mi North 9.2 mph - 0.04 in Rain Light Rain
11:13 PM 55.8 °F 54.1 °F 94% 30.02 in 7.0 mi North 9.2 mph - N/A   Drizzle
11:33 PM 55.8 °F 53.6 °F 92% 30.02 in 7.0 mi North 11.5 mph - 0.01 in Rain Rain
11:52 PM 55.8 °F 53.1 °F 91% 30.01 in 7.0 mi North 13.8 mph - 0.01 in Rain Light Rain